Regional Weather Roundup
Issued by NWS Northern Indiana

Home | Current Version | Previous Version | Graphics & Text | Print | Product List | Glossary On
Versions: 1 2 3 4 5 6 7 8 9 10 11 12 13 14 15 16 17 18 19 20 21 22 23 24 25 26 27 28 29 30 31 32 33 34 35 36 37 38 39 40 41 42 43 44 45 46 47 48 49 50
357
ASUS43 KIWX 201701
RWRIWX

KIWX WEATHER ROUNDUP
NATIONAL WEATHER SERVICE NORTHERN INDIANA
100 PM EDT WED SEP 20 2017

NOTE: "FAIR" INDICATES FEW OR NO CLOUDS BELOW 12,000 FEET WITH NO
SIGNIFICANT WEATHER AND/OR OBSTRUCTIONS TO VISIBILITY.

* THESE STATIONS ARE NOT UNDER NWS QUALITY CONTROL. THEY ALSO MAY NOT
  REPORT WEATHER SUCH AS PRECIPITATION OR FOG.

INZ001>027-201800-
NORTHERN INDIANA

CITY           SKY/WX    TMP DP  RH WIND       PRES   REMARKS
GARY*          MOSUNNY   84  68  58 SE7       29.93S
MICHIGAN CITY* SUNNY     82  68  61 S7        29.95S
KNOX*          SUNNY     82  70  65 S8        29.95F
SOUTH BEND     SUNNY     79  70  74 SE10      29.97F
ELKHART*       SUNNY     77  68  73 S9        29.98F
GOSHEN         SUNNY     78  68  71 SE8       29.98F
MONTICELLO*    SUNNY     83  70  65 S6        29.96S
WARSAW*        SUNNY     77  70  78 CALM      29.99F
AUBURN*        MOSUNNY   72  70  94 CALM      30.02F FOG
FORT WAYNE     MOSUNNY   81  70  69 VRB6      30.01F
PERU/GRISSOM   MOSUNNY   84  72  68 S8        29.97F

$$
INZ028>050-201800-
CENTRAL INDIANA

CITY           SKY/WX    TMP DP  RH WIND       PRES   REMARKS
LAFAYETTE      SUNNY     85  70  60 S7        29.95F
KOKOMO*        SUNNY     83  73  72 S10       30.00F
MUNCIE*        MOSUNNY   83  69  62 S8        30.01F
INDIANAPOLIS   MOSUNNY   84  71  65 S9        29.99F

$$
MIZ043>046-050>051-056>058-064>065-071>073-077>080-201800-
SOUTHWEST LOWER MICHIGAN

CITY           SKY/WX    TMP DP  RH WIND       PRES   REMARKS
BATTLE CREEK   MOSUNNY   78  66  66 S9        30.00F
BENTON HARBOR  SUNNY     81  66  60 S13       29.95S
COLDWATER*     MOSUNNY   77  67  70 SE5       30.00S
HILLSDALE*     CLOUDY    77  64  65 SW5       30.01F
HOLLAND        SUNNY     83  64  52 S8        29.97R
GRAND RAPIDS   MOSUNNY   79  63  57 S7        29.98S
KALAMAZOO      SUNNY     79  64  60 S10       29.99S
STURGIS*       SUNNY     79  68  69 S8        29.99S
THREE RIVERS*  FAIR      80  68  65 SW7       29.99F

$$
OHZ001>008-015>018-024>025-201800-
NORTHWEST OHIO

CITY           SKY/WX    TMP DP  RH WIND       PRES   REMARKS
DEFIANCE       PTSUNNY   76  69  79 CALM      30.01F
FINDLAY        MOSUNNY   80  66  62 CALM      30.01S
TOLEDO EXPRESS MOSUNNY   77  70  79 S5        30.01F
TOLEDO METCALF MOSUNNY   80  68  66 SW5       30.01F
LIMA           MOSUNNY   79  69  71 S5        30.02F

$$
AND FOR LAKE MICHIGAN COASTAL AND OPEN LAKE BUOY OBSERVATIONS

STATION/POSITION TEMP    WIND        PRES    VSBY  WAVE
                 AIR SEA DIR/SP/G                  HT/PER
                 (F)     (DEG/KT/KT) (MB)    (MI)  (FT/S)
CALUMET HARBOR    82     170/  9/ 13 1012.5S
MICHIGAN CITY     79     140/ 12/ 14   N/A
BURNS HARBOR      82     180/ 10/ 15 1013.9S
SAINT JOSEPH      78     190/  2/  8 1014.9
SOUTH LAKE BUOY   67 68  100/ 16/ 17 1013.4          2/ 4
4 MI NW BRIDGMAN  74 69  160/  8/ 10 1013.8S         1/ 2
MICHIGAN CITY     75 69  180/  8/ 10   N/A           1

$$
&&




USA.gov is the U.S. government's official web portal to all federal, state and local government web resources and services.